P/2013 AL76 ( Catalina )

Japanese version
Home page
Updated on September 14, 2013

---------------------------------------------------------------------

* Profile

Discovery Date January 14, 2013
Magnitude 19.8 mag
Discoverer J. A. Johnson (Catalina Sky Survey)

* Pictures

* Orbital Elements

Epoch 2012 Dec. 19.0 TT = JDT 2456280.5
T 2012 Dec. 13.32146 TT                                 MPC
q   2.0475438            (2000.0)            P               Q
n   0.05950268     Peri.   27.19859     -0.52751941     +0.78600598
a   6.4979801      Node   145.94034     +0.63647249     +0.11432448
e   0.6848953      Incl.  144.85899     +0.56269534     +0.60755618
P  16.6
From 47 observations 2013 Jan. 14-Feb. 6, mean residual 0".6.

* Magnitudes Graph

        m1 = 16.0 + 5 log d + 10.0 log r

---------------------------------------------------------------------

The orbital elements are published on M.P.E.C. 2013-C52.
The magnitudes graphs are made with Comet for Windows.

---------------------------------------------------------------------

Copyright(C) Seiichi Yoshida (comet@aerith.net). All rights reserved.